Location: Brno
(49.2000°N, 16.6330°E)
Time: 21:45:56
(UTC+02:00)

Envisat - Visible Passes

Search period start: 28 September 2020 00:00
Search period end: 08 October 2020 00:00
Orbit: 764 x 766 km, 98.1° (Epoch: 28 September)

Date Brightness Start Highest point End Pass type
(mag) Time Alt. Az. Time Alt. Az. Time Alt. Az.
29 Sep 6.1 19:20:10 10° SW 19:23:44 19° W 19:27:20 10° NW visible
30 Sep 6.1 05:44:57 10° NE 05:48:14 17° E 05:51:31 10° SE visible
01 Oct 6.6 19:48:00 10° WSW 19:49:33 11° W 19:51:06 10° WNW visible
02 Oct 5.5 06:09:37 10° NE 06:13:58 28° E 06:18:17 10° SSE visible
02 Oct 5.8 19:08:13 10° SW 19:12:15 23° W 19:16:18 10° NW visible
03 Oct 6.3 05:34:11 10° NE 05:36:43 14° E 05:39:16 10° ESE visible
04 Oct 6.3 19:35:20 10° WSW 19:38:00 14° W 19:40:42 10° NW visible
05 Oct 5.8 05:58:30 10° NE 06:02:29 23° E 06:06:27 10° SE visible
05 Oct 5.4 18:56:25 10° SSW 19:00:47 29° W 19:05:10 10° NW visible
06 Oct 6.6 05:23:56 10° ENE 05:25:11 11° E 05:26:26 10° E visible
07 Oct 4.9 06:23:27 10° NNE 06:28:09 36° E 06:32:50 10° SSE visible
07 Oct 6.2 19:23:07 10° SW 19:26:29 18° W 19:29:53 10° NW visible
